Seale, AL

6:39 PM CDT on September 28, 2016 (GMT -0500)
Lawson Army Air Field

Weather History for KLSF - May, 2013

Change the Weather History Date:

Sunday, May 5, 2013

  Actual Average Record
Temperature  
Mean Temperature 56 °F -  
Max Temperature 68 °F 80 °F 90 °F (2012)
Min Temperature 43 °F 54 °F 37 °F (1997)
Degree Days  
Heating Degree Days 10    
Growing Degree Days 6 (Base 50)    
Moisture  
Dew Point 49 °F    
Average Humidity 81    
Maximum Humidity 100    
Minimum Humidity 50    
Precipitation  
Precipitation 0.03 in - - ()
Sea Level Pressure  
Sea Level Pressure 29.83 in    
Wind  
Wind Speed 5 mph (WNW)    
Max Wind Speed 17 mph    
Max Gust Speed 23 mph    
Visibility 8 miles    
Events Rain    
Averages and records for this station are not official NWS values.
T = Trace of Precipitation, MM = Missing Value Source: NWS Daily Summary

Daily Weather History Graph

Daily Weather History Graph

Search for Another Location

Airport or City:

Trip Planner

Search our weather history database for the weather conditions in past years. The results will help you decide how hot, cold, wet, or windy it might be!

Date:

Astronomy

May. 05, 2013 Rise Set
Actual Time 6:49 AM EDT 8:24 PM EDT
Civil Twilight 6:23 AM EDT 8:50 PM EDT
Nautical Twilight 5:51 AM EDT 9:22 PM EDT
Astronomical Twilight 5:18 AM EDT 9:55 PM EDT
Moon 4:05 AM EDT (5/5) 4:35 PM EDT (5/5)
Length of Visible Light 14h 27m
Length of Day
13h 34m
Waning Crescent, 18% of the Moon is Illuminated
May 5
Waning Crescent
May 9
New
May 18
First Quarter
May 25
Full
May 31
Last Quarter

Hourly Weather History & Observations

Time (EDT) Temp. Windchill Dew Point Humidity Pressure Visibility Wind Dir Wind Speed Gust Speed Precip Events Conditions
12:08 AM 51.8 °F - 50.0 °F 94% 29.88 in 10.0 mi Variable 5.8 mph - N/A   Overcast
12:13 AM 51.8 °F - 50.0 °F 94% 29.87 in 10.0 mi North 5.8 mph - N/A   Overcast
12:18 AM 51.8 °F - 50.0 °F 94% 29.87 in 10.0 mi North 6.9 mph - N/A   Overcast
12:43 AM 51.8 °F - 50.0 °F 94% 29.86 in 10.0 mi North 9.2 mph - N/A   Overcast
12:53 AM 51.8 °F - 50.0 °F 94% 29.87 in 10.0 mi NW 5.8 mph - N/A   Mostly Cloudy
12:58 AM 51.8 °F - 50.0 °F 94% 29.88 in 10.0 mi WNW 5.8 mph - N/A   Mostly Cloudy
1:33 AM 50.0 °F - 48.2 °F 94% 29.85 in 10.0 mi WNW 4.6 mph - N/A   Scattered Clouds
1:52 AM 48.2 °F - 48.2 °F 100% 29.85 in 10.0 mi West 3.5 mph - N/A   Partly Cloudy
1:58 AM 48.7 °F - 48.4 °F 99% 29.86 in 10.0 mi West 4.6 mph - N/A   Partly Cloudy
2:48 AM 46.4 °F - 46.4 °F 100% 29.83 in 8.0 mi Calm Calm - N/A   Partly Cloudy
2:53 AM 46.4 °F - 46.4 °F 100% 29.83 in 2.0 mi SW 2.3 mph - N/A   Clear
2:58 AM 46.4 °F 45.2 °F 46.4 °F 100% 29.83 in 1.5 mi West 3.5 mph - N/A   Clear
3:00 AM 46.4 °F 44.3 °F 46.4 °F 100% 29.83 in 1.8 mi West 4.6 mph - N/A   Partly Cloudy
3:05 AM 46.4 °F 44.3 °F 46.4 °F 100% 29.82 in 4.0 mi West 4.6 mph - N/A   Scattered Clouds
3:10 AM 48.2 °F - 48.2 °F 100% 29.83 in 1.8 mi West 2.3 mph - N/A   Mostly Cloudy
3:15 AM 48.2 °F - 48.2 °F 100% 29.83 in 1.0 mi NW 1.2 mph - N/A   Mist
3:20 AM 48.2 °F - 48.2 °F 100% 29.83 in 0.8 mi Variable 1.2 mph - N/A   Mist
3:30 AM 48.2 °F - 48.2 °F 100% 29.83 in 1.0 mi WNW 3.5 mph - N/A   Mist
3:35 AM 48.2 °F - 48.2 °F 100% 29.83 in 1.2 mi West 3.5 mph - N/A   Overcast
3:40 AM 48.2 °F - 48.2 °F 100% 29.83 in 3.0 mi West 2.3 mph - N/A   Overcast
3:45 AM 48.2 °F - 48.2 °F 100% 29.83 in 6.0 mi West 4.6 mph - N/A   Overcast
3:50 AM 48.2 °F - 48.2 °F 100% 29.83 in 10.0 mi West 3.5 mph - N/A   Overcast
3:58 AM 48.2 °F - 48.0 °F 99% 29.84 in 10.0 mi WNW 4.6 mph - N/A   Overcast
4:38 AM 48.2 °F - 48.2 °F 100% 29.83 in 10.0 mi WNW 5.8 mph - N/A   Overcast
4:58 AM 47.3 °F - 47.1 °F 99% 29.84 in 10.0 mi WNW 4.6 mph - N/A   Overcast
5:58 AM 44.6 °F 42.2 °F 44.6 °F 100% 29.84 in 10.0 mi NW 4.6 mph - N/A   Mostly Cloudy
6:03 AM 44.6 °F 41.4 °F 44.6 °F 100% 29.84 in 10.0 mi NW 5.8 mph - N/A   Mostly Cloudy
6:13 AM 44.6 °F 42.2 °F 42.8 °F 93% 29.84 in 10.0 mi NW 4.6 mph - N/A   Scattered Clouds
6:58 AM 43.3 °F - 43.2 °F 99% 29.86 in 10.0 mi Calm Calm - N/A   Clear
7:58 AM 46.0 °F - 45.3 °F 97% 29.89 in 10.0 mi West 2.3 mph - N/A   Clear
8:58 AM 49.1 °F - 46.2 °F 90% 29.89 in 10.0 mi WNW 2.3 mph - N/A   Clear
9:58 AM 53.8 °F - 47.1 °F 78% 29.88 in 10.0 mi Calm Calm - N/A   Clear
10:58 AM 58.6 °F - 46.2 °F 63% 29.88 in 10.0 mi Calm Calm - N/A   Clear
11:58 AM 65.8 °F - 46.8 °F 50% 29.86 in 10.0 mi Variable 4.6 mph - N/A   Partly Cloudy
12:28 PM 66.2 °F - 48.2 °F 52% 29.85 in 10.0 mi Variable 3.5 mph - N/A   Mostly Cloudy
12:43 PM 66.2 °F - 50.0 °F 56% 29.84 in 10.0 mi Variable 6.9 mph - N/A   Scattered Clouds
12:58 PM 67.6 °F - 50.5 °F 54% 29.84 in 10.0 mi Variable 5.8 mph - N/A   Partly Cloudy
1:43 PM 66.2 °F - 50.0 °F 56% 29.82 in 10.0 mi Variable 2.3 mph - N/A   Mostly Cloudy
1:48 PM 66.2 °F - 50.0 °F 56% 29.82 in 10.0 mi Variable 3.5 mph - N/A   Mostly Cloudy
1:58 PM 67.6 °F - 51.8 °F 57% 29.83 in 10.0 mi Variable 3.5 mph - N/A   Scattered Clouds
2:45 PM 66.2 °F - 51.8 °F 60% 29.81 in 10.0 mi SSW 2.3 mph - N/A Rain Light Rain
2:58 PM 66.0 °F - 54.5 °F 66% 29.82 in 9.0 mi SSW 2.3 mph - 0.01 in Rain Light Rain
3:03 PM 64.4 °F - 55.4 °F 73% 29.81 in 6.0 mi Variable 1.2 mph - N/A Rain Light Rain
3:19 PM 64.4 °F - 55.4 °F 73% 29.79 in 10.0 mi WSW 3.5 mph - N/A   Mostly Cloudy
3:24 PM 64.4 °F - 57.2 °F 77% 29.79 in 10.0 mi WNW 2.3 mph - N/A   Mostly Cloudy
3:58 PM 66.4 °F - 54.9 °F 66% 29.78 in 10.0 mi Variable 1.2 mph - 0.02 in   Scattered Clouds
4:20 PM 68.0 °F - 53.6 °F 60% 29.76 in 10.0 mi Calm Calm - N/A   Light Drizzle
4:42 PM 66.2 °F - 57.2 °F 73% 29.76 in 10.0 mi South 2.3 mph - N/A   Mostly Cloudy
4:57 PM 66.2 °F - 55.4 °F 68% 29.76 in 10.0 mi SSE 3.5 mph - N/A   Overcast
4:58 PM 66.7 °F - 55.0 °F 66% 29.77 in 10.0 mi SSE 3.5 mph - 0.00 in   Overcast
5:53 PM 68.0 °F - 51.8 °F 56% 29.76 in 10.0 mi WNW 17.3 mph - N/A   Mostly Cloudy
5:58 PM 68.2 °F - 52.2 °F 56% 29.77 in 10.0 mi WNW 15.0 mph - N/A   Mostly Cloudy
6:03 PM 66.2 °F - 51.8 °F 60% 29.76 in 10.0 mi WNW 13.8 mph - N/A   Scattered Clouds
6:18 PM 64.4 °F - 48.2 °F 56% 29.77 in 10.0 mi WNW 17.3 mph 21.9 mph N/A   Mostly Cloudy
6:23 PM 64.4 °F - 48.2 °F 56% 29.78 in 10.0 mi WNW 13.8 mph - N/A   Mostly Cloudy
6:58 PM 62.6 °F - 46.0 °F 55% 29.81 in 10.0 mi West 12.7 mph 23.0 mph N/A   Scattered Clouds
7:58 PM 57.9 °F - 43.0 °F 58% 29.84 in 10.0 mi WNW 9.2 mph - N/A   Mostly Cloudy
9:58 PM 50.2 °F - 42.8 °F 76% 29.88 in 10.0 mi WNW 5.8 mph - N/A   Clear
10:58 PM 49.8 °F - 41.7 °F 74% 29.90 in 10.0 mi WNW 4.6 mph - N/A   Clear
11:58 PM 49.1 °F - 42.3 °F 77% 29.90 in 10.0 mi West 4.6 mph - N/A   Clear